Regional Weather Roundup
Issued by NWS Kansas City/Pleasant Hill, MO

Home | Current Version | Previous Version | Text Only | Print | Product List | Glossary On
Versions: 1 2 3 4 5 6 7 8 9 10 11 12 13 14 15 16 17 18 19 20 21 22 23 24 25 26 27 28 29
000
ASUS43 KEAX 050010
RWREAX

WEATHER ROUNDUP FOR EASTERN KANSAS AND NORTHWEST MISSOURI
NATIONAL WEATHER SERVICE KANSAS CITY/PLEASANT HILL MO
700 PM CDT WED MAY 04 2016

KSZ040-057-103>105-MOZ028-029-037-043-050100-
...KANSAS CITY METROPOLITAN AREA...

CITY           SKY/WX    TMP DP  RH WIND       PRES   REMARKS
K.C. INTL      SUNNY     67  39  35 N10       29.97S
6HR MIN TEMP:  67; 6HR MAX TEMP:  69;

K.C. DOWNTOWN  SUNNY     69  35  28 N12G21    29.95F
6HR MIN TEMP:  68; 6HR MAX TEMP:  71;

LEES SUMMIT    SUNNY     67  37  33 N13       29.97S
6HR MIN TEMP:  67; 6HR MAX TEMP:  70;

OLATHE - IXD   SUNNY     67  37  33 NW17      29.98F
6HR MIN TEMP:  67; 6HR MAX TEMP:  70;

OLATHE - OJC   SUNNY     67  34  29 N15       29.97F
6HR MIN TEMP:  66; 6HR MAX TEMP:  70;

LAWRENCE       SUNNY     68  37  32 N12       29.98F

$$

MOZ001>008-011>017-020>025-030>033-038>040-044>046-053-054-050100-
...NORTHERN AND CENTRAL MISSOURI...

CITY           SKY/WX    TMP DP  RH WIND       PRES   REMARKS
ST. JOSEPH     SUNNY     68  35  29 N16G22    29.98S
6HR MIN TEMP:  67; 6HR MAX TEMP:  71;

MOSBY          CLEAR     68  34  28 NW10G21   29.96F
WARRENSBURG    SUNNY     66  34  30 NW12      29.95S
WHITEMAN AFB   SUNNY     66  35  31 N15       29.93S
6HR MIN TEMP:  66; 6HR MAX TEMP:  70;

CLINTON        SUNNY     66  39  37 NW16      29.95S
SEDALIA        SUNNY     67  36  31 N18       29.95R
6HR MIN TEMP:  67; 6HR MAX TEMP:  71;

WARSAW         NOT AVBL
CHILLICOTHE      N/A     66  37  34 VRB7      29.97R
6HR MIN TEMP:  65; 6HR MAX TEMP:  69;

KIRKSVILLE     MOSUNNY   63  34  33 NW10G20   29.93F
6HR MIN TEMP:  63; 6HR MAX TEMP:  66;


$$

MOZ041-047>049-056>058-063>065-088>090-097-050100-
...EASTERN AND SOUTHERN MISSOURI...

CITY           SKY/WX    TMP DP  RH WIND       PRES   REMARKS
ST. LOUIS INTL PTCLDY    64  34  32 N15G23    29.87R
6HR MIN TEMP:  63; 6HR MAX TEMP:  70;

SPIRIT OF STL  PTCLDY    64  35  34 N13       29.87R
COLUMBIA       SUNNY     65  36  34 N15       29.91S
JEFFERSON CITY SUNNY     67  33  28 NW12G20   29.90S
ROLLA          SUNNY     63  35  35 N10       29.88S
OSAGE BEACH    SUNNY     66  36  32 N8        29.92S
SPRINGFIELD    SUNNY     67  38  34 N15       29.92F
BRANSON        SUNNY     68  37  32 NW13G22   29.93S
JOPLIN         SUNNY     68  39  34 N10       29.96F
WEST PLAINS    SUNNY     67  33  28 NW8G18    29.89R

$$

IAZ060-094-KSZ022-034>040-054-083-096-NEZ052-066-093-050100-
...KANSAS...SOUTHEAST NEBRASKA AND IOWA...

CITY           SKY/WX    TMP DP  RH WIND       PRES   REMARKS
TOPEKA         SUNNY     69  37  30 NW10G20   29.99S
6HR MIN TEMP:  68; 6HR MAX TEMP:  72;

MANHATTAN      SUNNY     71  33  24 N8        30.00F
EMPORIA        SUNNY     70  34  26 N8G20     29.99F
CHANUTE        SUNNY     70  35  27 N12       29.98S
WICHITA        SUNNY     72  32  23 N14       30.02S
OMAHA          SUNNY     68  39  34 N14       29.99F
LINCOLN        SUNNY     71  32  23 N14       30.02F
FALLS CITY     SUNNY     67  34  29 N13G24    29.99S
LAMONI         SUNNY     63  37  38 N14       29.96S
DES MOINES     MOSUNNY   67  31  26 NW14G21   29.94S

$$





USA.gov is the U.S. government's official web portal to all federal, state and local government web resources and services.